Regional Weather Roundup
Issued by NWS Spokane, WA

Home | Current Version | Previous Version | Text Only | Print | Product List | Glossary On
Versions: 1 2 3 4 5 6 7 8 9 10 11 12 13 14 15 16 17 18 19 20 21 22 23 24 25 26 27 28 29 30 31 32 33 34 35 36 37 38 39 40 41 42 43 44 45 46 47 48 49 50
890
NZUS01 KOTX 171525
RWROTX

Eastern Washington/Northern Idaho Roundup
National Weather Service, Spokane WA
700 AM PST WED JAN 17 2018

Note: "fair" indicated few or no clouds below 12,000 feet with no
significant weather and/or obstructions to visibility.

...Northeast Washington and Northern Idaho Panhandle...

CITY           SKY/WX    TMP DP  RH WIND       PRES   REMARKS
Spokane Intl   FOG       32  32 100 E8        30.16F VSB 1/4 WCI  25
Spokane Downto CLOUDY    34  33  96 CALM      30.19F FOG
Coeur d Alene  CLOUDY    34  34 100 NE9       30.19F WCI  26
Deer Park      MOCLDY    34  33  96 NE10      30.18F WCI  26
Sandpoint      CLOUDY    32  32 100 N5        30.21F WCI  27
Bonners Ferry  CLOUDY    30  28  93 CALM      30.23F FOG

...Southeast Washington and southern Idaho Panhandle...

CITY           SKY/WX    TMP DP  RH WIND       PRES   REMARKS
Walla Walla    FOG       35  35 100 S6        30.15F VSB 1/4
Pullman/Moscow CLOUDY    36  32  85 E21       30.18F
Lewiston       CLOUDY    38  34  85 E13       30.21F
Lowell           N/A     34  33  96 NW6       30.32  WCI  29
Grangeville    FAIR      30  30 100 SW3       30.21F

...Columbia Basin...

CITY           SKY/WX    TMP DP  RH WIND       PRES   REMARKS
Ephrata        CLOUDY    38  32  79 N9        30.16F
Moses Lake     CLOUDY    36  36 100 N8        30.16F
Pasco          CLOUDY    37  37 100 CALM      30.20F
Richland       CLOUDY    38  38  99 CALM      30.20F FOG
Hermiston      FOG       35  35 100 SE5       30.16S VSB 1/4
Pendleton      CLOUDY    35  33  92 NW8       30.13R FOG     WCI  29

...East Slopes Cascades...

CITY           SKY/WX    TMP DP  RH WIND       PRES   REMARKS
The Dalles     CLOUDY    40  39  97 CALM      30.17F FOG
Yakima         CLOUDY    39  36  89 CALM      30.15F
Ellensburg     FOG       37  34  89 E3        30.13F VSB 3/4
Wenatchee      LGT RAIN  34  33  96 N3        30.19F
Omak           MIX PCPN  33  33 100 CALM      30.19F FOG
Sunnyside      CLOUDY    34  33  98 CALM      30.16F FOG

...Southern British Columbia...

CITY           SKY/WX    TMP DP  RH WIND       PRES   REMARKS
Penticton      CLOUDY    37  32  81 SE13G22   30.15F
Castlegar      CLOUDY    32  32 100 CALM      30.24F FOG
Cranbrook      PTCLDY    16  14  93 SW2       30.19F
Osoyoos          N/A     37  32  81 E3          N/A
Creston          N/A     27  25  93 W2          N/A

...Western Montana...

CITY           SKY/WX    TMP DP  RH WIND       PRES   REMARKS
Kalispell      FOG       27  27 100 CALM      30.24F VSB 1/4
Missoula       FOG       16  14  92 CALM      30.30S VSB 3/4

...Neighboring Cities...

CITY           SKY/WX    TMP DP  RH WIND       PRES   REMARKS
Seattle        LGT RAIN  48  40  73 E12       29.98F
Portland       CLOUDY    48  41  76 SE15      30.01F
Boise          FOG       29  29 100 SW7       30.34F VSB 1/4 WCI  22
Great Falls    CLOUDY    34  22  61 S16       30.18S WCI  24
Calgary        MOCLDY    39  12  33 W9G24     29.97F



USA.gov is the U.S. government's official web portal to all federal, state and local government web resources and services.